When you browse on this site, cookies collect data to enhance your experience and personalize the content and advertising you see.
Visit our Privacy Policy to learn more. By continuing to use the site, you agree to this use of cookies and data.
  • In Portugal
  • List of Countries
  • For 7 days
  • Water Temperature
  • Satellite Maps
  • Weather Map
  • Weather Widgets
  • user-avatar
    Login

    Hourly Weather Yeghegnadzor

    Today, 21 July, Sunday

    Time Temperature Precipitation Wind Pressure Humidity
    00:00 +23°C° 0 mm 2 mps 655 mmHg 58%
    01:00 +23°C° 0 mm 2 mps 655 mmHg 58%
    02:00 +21°C° 0 mm 2 mps 655 mmHg 58%
    03:00 +21°C° 0 mm 2 mps 655 mmHg 56%
    04:00 +23°C° 0 mm 2 mps 655 mmHg 55%
    05:00 +24°C° 0 mm 2 mps 656 mmHg 54%
    06:00 +24°C° 0 mm 2 mps 656 mmHg 52%
    07:00 +27°C° 0 mm 2 mps 656 mmHg 46%
    08:00 +29°C° 0 mm 2 mps 657 mmHg 41%
    09:00 +32°C° 0 mm 2 mps 657 mmHg 33%
    10:00 +34°C° 0 mm 2 mps 657 mmHg 31%
    11:00 +35°C° 0 mm 3 mps 657 mmHg 28%
    12:00 +37°C° 0 mm 3 mps 657 mmHg 25%
    13:00 +37°C° 0 mm 3 mps 657 mmHg 24%
    14:00 +38°C° 0 mm 3 mps 656 mmHg 23%
    15:00 +38°C° 0 mm 3 mps 656 mmHg 22%
    16:00 +37°C° 0 mm 3 mps 655 mmHg 26%
    17:00 +36°C° 0 mm 3 mps 655 mmHg 31%
    18:00 +35°C° 0 mm 3 mps 655 mmHg 36%
    19:00 +33°C° 0 mm 3 mps 654 mmHg 41%
    20:00 +29°C° 0 mm 3 mps 654 mmHg 45%
    21:00 +27°C° 0 mm 3 mps 653 mmHg 50%
    22:00 +26°C° 0 mm 3 mps 653 mmHg 50%
    23:00 +26°C° 0 mm 3 mps 653 mmHg 49%

    Tomorrow, 22 July, Monday

    Time Temperature Precipitation Wind Pressure Humidity
    00:00 +25°C° 0 mm 2 mps 653 mmHg 48%
    01:00 +25°C° 0 mm 2 mps 653 mmHg 45%
    02:00 +25°C° 0 mm 2 mps 653 mmHg 42%
    03:00 +25°C° 0 mm 2 mps 653 mmHg 38%
    04:00 +26°C° 0 mm 2 mps 653 mmHg 39%
    05:00 +26°C° 0 mm 1 mps 653 mmHg 39%
    06:00 +27°C° 0 mm 1 mps 653 mmHg 39%
    07:00 +29°C° 0 mm 2 mps 654 mmHg 34%
    08:00 +32°C° 0 mm 2 mps 654 mmHg 28%
    09:00 +35°C° 0 mm 2 mps 654 mmHg 23%
    10:00 +37°C° 0 mm 3 mps 654 mmHg 21%
    11:00 +38°C° 0 mm 4 mps 654 mmHg 20%
    12:00 +40°C° 0 mm 5 mps 654 mmHg 18%
    13:00 +40°C° 0 mm 5 mps 654 mmHg 17%
    14:00 +41°C° 0 mm 5 mps 653 mmHg 17%
    15:00 +41°C° 0 mm 5 mps 653 mmHg 16%
    16:00 +40°C° 0.1 mm 5 mps 653 mmHg 22%
    17:00 +38°C° 0.1 mm 4 mps 652 mmHg 27%
    18:00 +37°C° 0.1 mm 4 mps 652 mmHg 32%
    19:00 +34°C° 0 mm 4 mps 652 mmHg 41%
    20:00 +31°C° 0 mm 3 mps 652 mmHg 49%
    21:00 +28°C° 0 mm 3 mps 652 mmHg 57%
    22:00 +27°C° 0 mm 3 mps 651 mmHg 57%
    23:00 +26°C° 0 mm 2 mps 651 mmHg 57%

    Day after tomorrow, 23 July, Tuesday

    Time Temperature Precipitation Wind Pressure Humidity
    00:00 +26°C° 0 mm 2 mps 651 mmHg 56%
    01:00 +25°C° 0 mm 2 mps 651 mmHg 57%
    02:00 +25°C° 0 mm 2 mps 651 mmHg 57%
    03:00 +24°C° 0 mm 2 mps 650 mmHg 58%
    04:00 +25°C° 0 mm 2 mps 651 mmHg 57%
    05:00 +25°C° 0 mm 2 mps 651 mmHg 56%
    06:00 +26°C° 0 mm 2 mps 652 mmHg 55%
    07:00 +28°C° 0 mm 2 mps 652 mmHg 49%
    08:00 +30°C° 0 mm 2 mps 653 mmHg 43%
    09:00 +32°C° 0 mm 2 mps 653 mmHg 37%
    10:00 +34°C° 0 mm 2 mps 653 mmHg 34%
    11:00 +35°C° 0 mm 3 mps 653 mmHg 31%
    12:00 +37°C° 0 mm 4 mps 653 mmHg 28%
    13:00 +37°C° 0 mm 4 mps 653 mmHg 26%
    14:00 +39°C° 0 mm 5 mps 652 mmHg 24%
    15:00 +40°C° 0 mm 6 mps 652 mmHg 23%
    16:00 +37°C° 0 mm 5 mps 652 mmHg 28%
    17:00 +36°C° 0 mm 5 mps 651 mmHg 34%
    18:00 +35°C° 0 mm 4 mps 651 mmHg 39%
    19:00 +32°C° 0 mm 4 mps 651 mmHg 47%
    20:00 +29°C° 0 mm 3 mps 651 mmHg 55%
    21:00 +26°C° 0 mm 3 mps 651 mmHg 62%
    22:00 +26°C° 0 mm 3 mps 650 mmHg 63%
    23:00 +25°C° 0 mm 2 mps 650 mmHg 63%

    24 July, Wednesday

    Time Temperature Precipitation Wind Pressure Humidity
    00:00 +24°C° 0 mm 2 mps 650 mmHg 64%
    01:00 +24°C° 0 mm 2 mps 650 mmHg 64%
    02:00 +23°C° 0 mm 2 mps 650 mmHg 64%
    03:00 +23°C° 0 mm 1 mps 650 mmHg 64%
    04:00 +24°C° 0 mm 1 mps 650 mmHg 62%
    05:00 +24°C° 0 mm 1 mps 651 mmHg 59%
    06:00 +25°C° 0 mm 1 mps 651 mmHg 57%
    07:00 +27°C° 0 mm 1 mps 652 mmHg 51%
    08:00 +29°C° 0 mm 2 mps 652 mmHg 45%
    09:00 +30°C° 0 mm 2 mps 652 mmHg 39%
    10:00 +33°C° 0 mm 3 mps 652 mmHg 35%
    11:00 +34°C° 0 mm 4 mps 652 mmHg 31%
    12:00 +35°C° 0 mm 5 mps 653 mmHg 26%
    13:00 +35°C° 0 mm 5 mps 652 mmHg 24%
    14:00 +36°C° 0 mm 4 mps 652 mmHg 22%
    15:00 +36°C° 0 mm 4 mps 652 mmHg 19%
    16:00 +36°C° 0 mm 4 mps 652 mmHg 20%
    17:00 +35°C° 0 mm 3 mps 652 mmHg 20%
    18:00 +35°C° 0 mm 3 mps 652 mmHg 21%
    19:00 +31°C° 0 mm 2 mps 651 mmHg 23%
    20:00 +29°C° 0 mm 2 mps 651 mmHg 26%
    21:00 +26°C° 0 mm 2 mps 651 mmHg 29%
    22:00 +25°C° 0 mm 2 mps 651 mmHg 30%
    23:00 +25°C° 0 mm 2 mps 651 mmHg 32%

    25 July, Thursday

    Time Temperature Precipitation Wind Pressure Humidity
    00:00 +24°C° 0 mm 2 mps 651 mmHg 34%
    01:00 +24°C° 0 mm 2 mps 651 mmHg 33%
    02:00 +23°C° 0 mm 2 mps 651 mmHg 32%
    03:00 +23°C° 0 mm 2 mps 651 mmHg 31%
    04:00 +24°C° 0 mm 2 mps 651 mmHg 31%
    05:00 +24°C° 0 mm 2 mps 651 mmHg 32%
    06:00 +25°C° 0 mm 1 mps 652 mmHg 32%
    07:00 +28°C° 0 mm 2 mps 652 mmHg 28%
    08:00 +30°C° 0 mm 2 mps 653 mmHg 24%
    09:00 +34°C° 0 mm 2 mps 654 mmHg 20%
    10:00 +35°C° 0 mm 3 mps 654 mmHg 19%
    11:00 +36°C° 0 mm 4 mps 653 mmHg 18%
    12:00 +37°C° 0 mm 5 mps 653 mmHg 16%
    13:00 +39°C° 0 mm 5 mps 653 mmHg 16%
    14:00 +39°C° 0 mm 5 mps 652 mmHg 15%
    15:00 +40°C° 0 mm 5 mps 652 mmHg 15%
    16:00 +38°C° 0 mm 4 mps 652 mmHg 17%
    17:00 +37°C° 0 mm 3 mps 651 mmHg 18%
    18:00 +36°C° 0 mm 2 mps 651 mmHg 20%
    19:00 +34°C° 0 mm 2 mps 651 mmHg 27%
    20:00 +30°C° 0 mm 2 mps 651 mmHg 35%
    21:00 +27°C° 0 mm 2 mps 650 mmHg 42%
    22:00 +26°C° 0 mm 2 mps 650 mmHg 43%
    23:00 +26°C° 0 mm 2 mps 650 mmHg 44%

    26 July, Friday

    Time Temperature Precipitation Wind Pressure Humidity
    00:00 +25°C° 0 mm 2 mps 650 mmHg 46%
    01:00 +24°C° 0 mm 2 mps 650 mmHg 46%
    02:00 +23°C° 0 mm 2 mps 650 mmHg 47%
    03:00 +23°C° 0 mm 1 mps 650 mmHg 48%
    04:00 +23°C° 0 mm 1 mps 650 mmHg 48%
    05:00 +24°C° 0 mm 1 mps 650 mmHg 48%
    06:00 +24°C° 0 mm 1 mps 651 mmHg 48%
    07:00 +27°C° 0 mm 1 mps 651 mmHg 42%
    08:00 +29°C° 0 mm 2 mps 652 mmHg 36%
    09:00 +31°C° 0 mm 2 mps 652 mmHg 31%
    10:00 +33°C° 0 mm 3 mps 652 mmHg 27%
    11:00 +34°C° 0 mm 4 mps 652 mmHg 24%
    12:00 +35°C° 0 mm 5 mps 651 mmHg 21%
    13:00 +35°C° 0 mm 4 mps 651 mmHg 20%
    14:00 +36°C° 0 mm 4 mps 651 mmHg 19%
    15:00 +36°C° 0 mm 3 mps 650 mmHg 17%
    16:00 +35°C° 0 mm 3 mps 650 mmHg 21%
    17:00 +35°C° 0 mm 2 mps 650 mmHg 24%
    18:00 +33°C° 0 mm 1 mps 649 mmHg 28%
    19:00 +30°C° 0 mm 2 mps 649 mmHg 37%
    20:00 +27°C° 0 mm 2 mps 649 mmHg 47%
    21:00 +24°C° 0 mm 3 mps 649 mmHg 57%
    22:00 +24°C° 0 mm 3 mps 649 mmHg 59%
    23:00 +23°C° 0 mm 2 mps 648 mmHg 60%
    Show more